Kezdőlap
METAR-TAF:

METAR-TAF

Repülőterek :

Audubon County Airport

Audubon, Iowa, Amerikai Egyesült Államok

földrajzi szélesség: 41-42-04N, földrajzi hosszúság: 094-55-13W, magasság: 392 m

Jelenlegi meteorológiai megfigyelések

A jelentés 5 perccel ezelõtt készült, 10:55 UTC
Délkeleti szél 6 kt
Hőmérséklet -8°C
Páratartalom 92%
Légköri nyomás 1013 hPa
Látótávolság: 2.8 km
Borult 200 lábon
Párásság

METAR: KADU 131055Z AUTO 13006KT 1 3/4SM BR OVC002 M08/M09 A2991 RMK AO2

Idő: 05:00 (11:00 UTC)


TAF: hiányzik

Meteorológiai megfigyelések és előrejelzések több, mint 4000 repülőtéren (METAR és TAF jelentéseket).

A térképen piros és sárga pontok jelzik az elérhető meteorológiai állomásokat.

Mozgassa az egeret a pont fölött, hogy megjelenjen az állomás neve.

Azután kattintson az időjárási megfigyelések és előrejelzések megtekintéséhez.

A térkép megváltoztatása: kattintson a fekete keresztel jelölt zöld gombra ráközelítéshez, a vonallal jelölt zöld gombra távolításhoz, vagy a zöld nyilakra a szomszédos térképek eléréséhez.


METAR-TAF: